IGO136H VOMM-VOBL

Flight info

Callsign IGO136H
Flight time 0h 35m
Altitude 16000
Route MMV W117 BIA
Aircraft A320/M-SDE3FGHIRWY/LB1

Departure

Time 2026-04-26 06:27
Airport Chennai International Airport (VOMM)

Arrival

Time 2026-04-26 07:02
Airport Kempegowda International Airport Bengaluru (VOBL)
Time Latitude Longitude Altitude Speed Heading
2026-04-26 06:03 12.98491 80.16710 47 ft 0 kts 159°
2026-04-26 06:18 12.98492 80.16710 51 ft 2 kts 159°
2026-04-26 06:18 12.98507 80.16703 50 ft 2 kts 157°
2026-04-26 06:18 12.98522 80.16696 50 ft 2 kts 151°
2026-04-26 06:18 12.98536 80.16687 54 ft 2 kts 141°
2026-04-26 06:19 12.98548 80.16675 51 ft 2 kts 118°
2026-04-26 06:19 12.98553 80.16659 51 ft 2 kts 79°
2026-04-26 06:19 12.98551 80.16648 50 ft 1 kts 67°
2026-04-26 06:19 12.98550 80.16647 50 ft 0 kts 68°
2026-04-26 06:22 12.98552 80.16652 51 ft 3 kts 69°
2026-04-26 06:22 12.98568 80.16696 54 ft 10 kts 70°
2026-04-26 06:22 12.98574 80.16713 53 ft 1 kts 70°
2026-04-26 06:22 12.98582 80.16734 55 ft 6 kts 66°
2026-04-26 06:23 12.98624 80.16766 54 ft 9 kts 359°
2026-04-26 06:23 12.98688 80.16742 52 ft 11 kts 338°
2026-04-26 06:23 12.98758 80.16745 57 ft 12 kts 45°
2026-04-26 06:23 12.98791 80.16826 54 ft 13 kts 69°
2026-04-26 06:24 12.98826 80.16922 54 ft 15 kts 70°
2026-04-26 06:24 12.98864 80.17030 55 ft 17 kts 70°
2026-04-26 06:24 12.98911 80.17145 50 ft 18 kts 70°
2026-04-26 06:24 12.98935 80.17209 52 ft 1 kts 65°
2026-04-26 06:25 12.98950 80.17234 52 ft 9 kts 59°
2026-04-26 06:25 12.98994 80.17328 55 ft 20 kts 68°
2026-04-26 06:25 12.99049 80.17475 55 ft 23 kts 69°
2026-04-26 06:25 12.99107 80.17630 54 ft 24 kts 69°
2026-04-26 06:26 12.99175 80.17696 54 ft 13 kts 352°
2026-04-26 06:26 12.99259 80.17664 62 ft 13 kts 338°
2026-04-26 06:26 12.99278 80.17591 56 ft 14 kts 246°
2026-04-26 06:26 12.99234 80.17480 55 ft 26 kts 249°
2026-04-26 06:27 12.99088 80.17091 51 ft 92 kts 249°
2026-04-26 06:27 12.98793 80.16295 54 ft 143 kts 248°
2026-04-26 06:27 12.98354 80.15262 336 ft 161 kts 243°
2026-04-26 06:27 12.97973 80.14194 1010 ft 162 kts 247°
2026-04-26 06:28 12.97767 80.13052 1488 ft 175 kts 278°
2026-04-26 06:28 12.98221 80.11807 1770 ft 196 kts 288°
2026-04-26 06:28 12.98701 80.10416 1969 ft 218 kts 285°
2026-04-26 06:28 12.99178 80.08868 2237 ft 242 kts 285°
2026-04-26 06:29 12.99695 80.07133 2741 ft 263 kts 285°
2026-04-26 06:29 13.00235 80.05307 3419 ft 271 kts 284°
2026-04-26 06:29 13.00787 80.03431 4161 ft 277 kts 285°
2026-04-26 06:29 13.01342 80.01545 4894 ft 282 kts 285°
2026-04-26 06:30 13.01917 79.99585 5644 ft 289 kts 287°
2026-04-26 06:30 13.02493 79.97617 5884 ft 292 kts 287°
2026-04-26 06:30 13.03082 79.95608 6400 ft 295 kts 287°
2026-04-26 06:30 13.03674 79.93583 7185 ft 295 kts 288°
2026-04-26 06:31 13.04262 79.91565 7927 ft 299 kts 288°
2026-04-26 06:31 13.04869 79.89499 8646 ft 303 kts 289°
2026-04-26 06:31 13.05487 79.87402 9343 ft 308 kts 289°
2026-04-26 06:31 13.06105 79.85299 10016 ft 313 kts 289°
2026-04-26 06:32 13.06756 79.83088 10256 ft 334 kts 289°
2026-04-26 06:32 13.07441 79.80766 10510 ft 350 kts 289°
2026-04-26 06:32 13.08123 79.78339 11056 ft 356 kts 287°
2026-04-26 06:32 13.08753 79.75862 11664 ft 360 kts 286°
2026-04-26 06:33 13.09360 79.73355 12282 ft 362 kts 285°
2026-04-26 06:33 13.09953 79.70860 12881 ft 365 kts 285°
2026-04-26 06:33 13.10563 79.68312 13489 ft 368 kts 286°
2026-04-26 06:33 13.11185 79.65748 14040 ft 370 kts 286°
2026-04-26 06:34 13.11815 79.63183 14572 ft 372 kts 286°
2026-04-26 06:34 13.12448 79.60622 15099 ft 375 kts 285°
2026-04-26 06:34 13.13090 79.58016 15621 ft 377 kts 285°
2026-04-26 06:34 13.13735 79.55394 15857 ft 380 kts 285°
2026-04-26 06:35 13.14377 79.52788 15924 ft 379 kts 285°
2026-04-26 06:35 13.15027 79.50168 15926 ft 378 kts 285°
2026-04-26 06:35 13.15678 79.47544 15928 ft 378 kts 285°
2026-04-26 06:35 13.16324 79.44923 15929 ft 378 kts 285°
2026-04-26 06:36 13.16967 79.42311 15930 ft 378 kts 285°
2026-04-26 06:36 13.17605 79.39723 15930 ft 378 kts 285°
2026-04-26 06:36 13.18253 79.37095 15933 ft 378 kts 285°
2026-04-26 06:36 13.18891 79.34506 15933 ft 378 kts 285°
2026-04-26 06:37 13.19537 79.31887 15938 ft 378 kts 285°
2026-04-26 06:37 13.20187 79.29264 15943 ft 378 kts 285°
2026-04-26 06:37 13.20838 79.26648 15944 ft 378 kts 285°
2026-04-26 06:37 13.21485 79.24044 15948 ft 378 kts 285°
2026-04-26 06:38 13.22133 79.21420 15951 ft 379 kts 285°
2026-04-26 06:38 13.22779 79.18795 15952 ft 379 kts 285°
2026-04-26 06:38 13.23417 79.16201 15957 ft 379 kts 285°
2026-04-26 06:38 13.24069 79.13568 15959 ft 379 kts 285°
2026-04-26 06:39 13.24724 79.10923 15959 ft 379 kts 285°
2026-04-26 06:39 13.25366 79.08330 15964 ft 379 kts 285°
2026-04-26 06:39 13.26015 79.05698 15963 ft 379 kts 285°
2026-04-26 06:39 13.26662 79.03069 15964 ft 379 kts 285°
2026-04-26 06:40 13.27308 79.00433 15965 ft 379 kts 285°
2026-04-26 06:40 13.27949 78.97811 15968 ft 379 kts 285°
2026-04-26 06:40 13.28589 78.95209 15969 ft 379 kts 285°
2026-04-26 06:40 13.29171 78.92562 15972 ft 379 kts 279°
2026-04-26 06:41 13.29300 78.89850 15973 ft 381 kts 267°
2026-04-26 06:41 13.29101 78.87161 15973 ft 381 kts 266°
2026-04-26 06:41 13.28901 78.84444 15973 ft 381 kts 266°
2026-04-26 06:41 13.28708 78.81725 15974 ft 381 kts 266°
2026-04-26 06:42 13.28515 78.79008 15978 ft 381 kts 266°
2026-04-26 06:42 13.28324 78.76323 15981 ft 381 kts 266°
2026-04-26 06:42 13.28132 78.73599 15983 ft 381 kts 266°
2026-04-26 06:42 13.27938 78.70873 15987 ft 381 kts 266°
2026-04-26 06:43 13.27739 78.68161 15990 ft 381 kts 266°
2026-04-26 06:43 13.27540 78.65471 15999 ft 381 kts 266°
2026-04-26 06:43 13.27340 78.62753 15999 ft 381 kts 266°
2026-04-26 06:43 13.27140 78.60027 15999 ft 381 kts 266°
2026-04-26 06:44 13.26943 78.57344 15999 ft 381 kts 266°
2026-04-26 06:44 13.26744 78.54630 15916 ft 377 kts 266°
2026-04-26 06:44 13.26549 78.51981 15676 ft 367 kts 266°
2026-04-26 06:44 13.26360 78.49389 15435 ft 359 kts 266°
2026-04-26 06:45 13.26218 78.46876 15199 ft 352 kts 272°
2026-04-26 06:45 13.26484 78.44393 14830 ft 350 kts 281°
2026-04-26 06:45 13.26887 78.41929 14432 ft 350 kts 281°
2026-04-26 06:45 13.27289 78.39453 14028 ft 350 kts 281°
2026-04-26 06:46 13.27682 78.37014 13612 ft 350 kts 281°
2026-04-26 06:46 13.28076 78.34536 13192 ft 349 kts 281°
2026-04-26 06:46 13.28466 78.32080 12882 ft 344 kts 281°
2026-04-26 06:46 13.28842 78.29716 12785 ft 334 kts 281°
2026-04-26 06:47 13.29211 78.27391 12639 ft 325 kts 281°
2026-04-26 06:47 13.29571 78.25114 12488 ft 318 kts 281°
2026-04-26 06:47 13.29922 78.22898 12343 ft 311 kts 281°
2026-04-26 06:47 13.30260 78.20758 12198 ft 304 kts 282°
2026-04-26 06:48 13.30761 78.18684 12063 ft 295 kts 298°
2026-04-26 06:48 13.31902 78.16979 11978 ft 286 kts 321°
2026-04-26 06:48 13.33526 78.15854 11989 ft 280 kts 342°
2026-04-26 06:48 13.35393 78.15411 11990 ft 273 kts
2026-04-26 06:49 13.37237 78.15661 11835 ft 269 kts 22°
2026-04-26 06:49 13.38862 78.16555 11591 ft 262 kts 41°
2026-04-26 06:49 13.40057 78.17925 11354 ft 260 kts 59°
2026-04-26 06:49 13.40744 78.19625 11114 ft 259 kts 77°
2026-04-26 06:50 13.40847 78.21478 10878 ft 261 kts 92°
2026-04-26 06:50 13.40646 78.23341 10646 ft 262 kts 96°
2026-04-26 06:50 13.40363 78.25192 10412 ft 261 kts 97°
2026-04-26 06:50 13.40061 78.27011 10179 ft 260 kts 97°
2026-04-26 06:51 13.39753 78.28849 9956 ft 260 kts 97°
2026-04-26 06:51 13.37812 78.31865 9459 ft 270 kts 149°
2026-04-26 06:51 13.35986 78.32348 9206 ft 276 kts 178°
2026-04-26 06:52 13.34118 78.31895 8958 ft 279 kts 207°
2026-04-26 06:52 13.32662 78.30621 8716 ft 280 kts 232°
2026-04-26 06:52 13.31580 78.28956 8476 ft 279 kts 238°
2026-04-26 06:52 13.30574 78.27262 8224 ft 271 kts 239°
2026-04-26 06:53 13.29617 78.25626 7994 ft 261 kts 239°
2026-04-26 06:53 13.28715 78.24083 7747 ft 251 kts 239°
2026-04-26 06:53 13.27841 78.22574 7518 ft 240 kts 239°
2026-04-26 06:53 13.27014 78.21135 7322 ft 226 kts 239°
2026-04-26 06:54 13.26228 78.19764 7100 ft 220 kts 238°
2026-04-26 06:54 13.25463 78.18419 6975 ft 225 kts 239°
2026-04-26 06:54 13.24642 78.16970 6938 ft 240 kts 239°
2026-04-26 06:54 13.23788 78.15465 6938 ft 246 kts 239°
2026-04-26 06:55 13.22919 78.13942 6941 ft 247 kts 239°
2026-04-26 06:55 13.22062 78.12437 6951 ft 247 kts 239°
2026-04-26 06:55 13.21189 78.10907 6957 ft 247 kts 239°
2026-04-26 06:55 13.20453 78.09320 6956 ft 247 kts 256°
2026-04-26 06:56 13.20334 78.07577 6967 ft 247 kts 270°
2026-04-26 06:56 13.20362 78.05829 6967 ft 248 kts 271°
2026-04-26 06:56 13.20386 78.04052 6965 ft 248 kts 271°
2026-04-26 06:56 13.20404 78.02270 6971 ft 248 kts 270°
2026-04-26 06:57 13.20421 78.00518 6968 ft 248 kts 271°
2026-04-26 06:57 13.20438 77.98747 6975 ft 248 kts 270°
2026-04-26 06:57 13.20456 77.96987 6785 ft 245 kts 271°
2026-04-26 06:57 13.20473 77.95238 6518 ft 244 kts 270°
2026-04-26 06:58 13.20489 77.93505 6356 ft 238 kts 270°
2026-04-26 06:58 13.20505 77.91853 6236 ft 230 kts 270°
2026-04-26 06:58 13.20521 77.90244 6146 ft 221 kts 270°
2026-04-26 06:58 13.20535 77.88693 5940 ft 213 kts 270°
2026-04-26 06:59 13.20545 77.87692 5760 ft 210 kts 270°
2026-04-26 06:59 13.20563 77.85713 5417 ft 205 kts 270°
2026-04-26 06:59 13.20572 77.84746 5245 ft 202 kts 270°
2026-04-26 06:59 13.20590 77.82860 4930 ft 197 kts 269°
2026-04-26 07:00 13.20598 77.81908 4763 ft 196 kts 269°
2026-04-26 07:00 13.20611 77.80543 4529 ft 188 kts 270°
2026-04-26 07:00 13.20623 77.79262 4306 ft 171 kts 270°
2026-04-26 07:00 13.20633 77.78070 4079 ft 162 kts 268°
2026-04-26 07:01 13.20643 77.76944 3883 ft 158 kts 270°
2026-04-26 07:01 13.20653 77.75815 3661 ft 157 kts 269°
2026-04-26 07:01 13.20661 77.74694 3491 ft 156 kts 269°
2026-04-26 07:01 13.20674 77.73594 3270 ft 154 kts 270°
2026-04-26 07:02 13.20700 77.72482 3119 ft 156 kts 269°
2026-04-26 07:02 13.20707 77.71386 3022 ft 142 kts 268°
2026-04-26 07:02 13.20682 77.70576 3011 ft 57 kts 271°
2026-04-26 07:02 13.20706 77.70277 3011 ft 31 kts 270°
2026-04-26 07:03 13.20668 77.70069 3015 ft 18 kts 246°
2026-04-26 07:03 13.20620 77.69975 3011 ft 9 kts 240°
2026-04-26 07:03 13.20615 77.69964 3011 ft 0 kts 240°
2026-04-26 07:03 13.20610 77.69957 3011 ft 2 kts 238°
2026-04-26 07:04 13.20597 77.69945 3011 ft 3 kts 213°
2026-04-26 07:04 13.20571 77.69940 3011 ft 5 kts 181°
2026-04-26 07:04 13.20541 77.69964 3011 ft 7 kts 121°
2026-04-26 07:04 13.20534 77.70024 3011 ft 10 kts 86°
2026-04-26 07:05 13.20535 77.70108 3012 ft 14 kts 90°
2026-04-26 07:05 13.20535 77.70215 3012 ft 17 kts 91°
2026-04-26 07:05 13.20533 77.70344 3011 ft 19 kts 90°
2026-04-26 07:05 13.20531 77.70490 3011 ft 21 kts 92°
2026-04-26 07:06 13.20531 77.70646 3011 ft 23 kts 90°
2026-04-26 07:06 13.20529 77.70788 3011 ft 12 kts 91°
2026-04-26 07:06 13.20529 77.70878 3011 ft 14 kts 90°
2026-04-26 07:06 13.20528 77.70983 3011 ft 15 kts 90°
2026-04-26 07:07 13.20527 77.71098 3011 ft 17 kts 90°
2026-04-26 07:07 13.20526 77.71215 3011 ft 3 kts 90°
2026-04-26 07:07 13.20526 77.71244 3011 ft 5 kts 90°
2026-04-26 07:07 13.20504 77.71272 3011 ft 6 kts 151°
2026-04-26 07:08 13.20459 77.71277 3013 ft 7 kts 181°
2026-04-26 07:08 13.20393 77.71277 3011 ft 11 kts 180°
2026-04-26 07:08 13.20309 77.71276 3015 ft 13 kts 180°
2026-04-26 07:08 13.20247 77.71263 3011 ft 8 kts 223°
2026-04-26 07:09 13.20240 77.71207 3011 ft 9 kts 271°
2026-04-26 07:09 13.20241 77.71138 3011 ft 10 kts 270°
2026-04-26 07:09 13.20241 77.71058 3011 ft 12 kts 270°
2026-04-26 07:09 13.20243 77.70968 3011 ft 13 kts 271°
2026-04-26 07:10 13.20242 77.70810 3013 ft 2 kts 251°
2026-04-26 07:11 13.20208 77.70796 2996 ft 4 kts 180°
2026-04-26 07:11 13.20180 77.70797 3011 ft 3 kts 179°
2026-04-26 07:11 13.20171 77.70797 3011 ft 0 kts 180°